Погода в Оснабрюкке

Германия     52°16′54″N   8°02′34″E
темп.,
°C
ветер,
м/с
пор.,
м/с
влажн.,
%
обл.,
%
осадки,
мм/ч
давл.,
гПа
погр.,
м
14 августа, вс
вс1423:00+23вюв395241 0.0 1015376
02:00+21в26605 0.0 1014187
05:00+20вюв277242 0.0 1012194
08:00+22вюв26643 0.0 1012273
11:00+27вюв56431 0.0 10101330
14:00+31вюв46328 0.0 10082423
17:00+32юв562795 0.0 10062776
20:00+29вюв593791 0.1 1005780
15 августа, пн
пн1523:00+25юв394766 0.0 1005255
02:00+23вюв3852100 0.0 1004204
05:00+22вюв37569 0.0 1003169
08:00+22ю255687 0.2 1003230
11:00+27ююз4540100 0.0 10031064
14:00+30ююз683362 0.0 10032200
17:00+29юз683096 0.0 10032212
20:00+27зюз47372 0.0 10031083
16 августа, вт
вт1623:00+21зюз245536 0.1 1005162
02:00+19юз246413 0.1 1006124
05:00+19ю246691 0.0 1006143
08:00+20ююз246572 0.0 1007186
11:00+27ююз34415 0.0 10071236
14:00+30ююз342799 0.0 10073059
17:00+31юз3426100 0.0 10072788
20:00+28юз3534100 0.0 1007310
17 августа, ср
ср1723:00+24сз114561 0.0 100926
02:00+21ссз11555 0.0 100939
05:00+20ссв116255 0.0 101024
08:00+21ссз1157100 0.1 1010121
11:00+25ссз3348100 0.0 1011839
14:00+28сз2339100 0.0 10102031
17:00+19сз5892100 3.2 1011302
20:00+19ссз2491100 3.3 1012406
18 августа, чт
чт1823:00+18с239358 0.6 1012274
02:00+17сз249441 0.6 1013281
05:00+16сз3595100 0.0 1012351
08:00+17ссз3593100 0.1 1013403
11:00+18ссз3582100 0.1 1014704
14:00+21ссз455699 0.3 10141383
17:00+21ссз455188 0.0 10141417
20:00+20с3555100 0.0 1014710